sampling_time,wmo_synop_id,msc_id,stn_nam,stn_elev,lat,long,stn_typ,date_tm,rpt_typ,result_time,crnt_buoy_lat,crnt_buoy_lat_qa_summary,crnt_buoy_long,crnt_buoy_long_qa_summary,avg_air_temp_pst10mts,avg_air_temp_pst10mts_qa_summary,avg_sea_sfc_temp_pst10mts,avg_sea_sfc_temp_pst10mts_qa_summary,avg_batry_volt_pst10mts,avg_batry_volt_pst10mts_qa_summary,avg_solr_panl_crnt_pst10mts,avg_solr_panl_crnt_pst10mts_qa_summary,avg_wtr_lvl_snsr_volt_pst10mts,avg_wtr_lvl_snsr_volt_pst10mts_qa_summary,avg_wave_hgt_pst20mts,avg_wave_hgt_pst20mts_qa_summary,pk_wave_hgt_pst20mts,pk_wave_hgt_pst20mts_qa_summary,sig_wave_pd_pst20mts,sig_wave_pd_pst20mts_qa_summary,sig_wave_hgt_pst20mts,sig_wave_hgt_pst20mts_qa_summary,avg_max_wave_hgt_pst20mts,avg_max_wave_hgt_pst20mts_qa_summary,avg_max_wave_pd_pst20mts,avg_max_wave_pd_pst20mts_qa_summary,avg_wave_pd_pst20mts,avg_wave_pd_pst20mts_qa_summary,pk_wave_pd_pst20mts,pk_wave_pd_pst20mts_qa_summary,avg_stn_pres_pst10mts,avg_stn_pres_pst10mts_qa_summary,avg_wnd_spd_pst10mts,avg_wnd_spd_pst10mts_qa_summary,avg_wnd_dir_pst10mts,avg_wnd_dir_pst10mts_qa_summary,max_avg_wnd_spd_pst10mts,max_avg_wnd_spd_pst10mts_qa_summary,wnd_snsr_vert_disp,wnd_snsr_vert_disp_qa_summary,pres_tend_amt_pst3hrs,pres_tend_amt_pst3hrs_data_flag,pres_tend_char_pst3hrs,pres_tend_char_pst3hrs_data_flag,avg_mslp_pst10mts,avg_mslp_pst10mts_data_flag,avg_stn_pres_pst10mts_1,avg_stn_pres_pst10mts_1_qa_summary,avg_stn_pres_pst10mts_2,avg_stn_pres_pst10mts_2_qa_summary,avg_wnd_spd_pst10mts_1,avg_wnd_spd_pst10mts_1_qa_summary,avg_wnd_spd_pst10mts_2,avg_wnd_spd_pst10mts_2_qa_summary,avg_wnd_dir_pst10mts_1,avg_wnd_dir_pst10mts_1_qa_summary,avg_wnd_dir_pst10mts_2,avg_wnd_dir_pst10mts_2_qa_summary,max_avg_wnd_spd_pst10mts_1,max_avg_wnd_spd_pst10mts_1_qa_summary,max_avg_wnd_spd_pst10mts_2,max_avg_wnd_spd_pst10mts_2_qa_summary
2021-11-08T00:00:00Z,44488,9302000,EAST CHEDABUCTO BAY,0,45.445,-60.9538,18,2021-11-08T00:00:00.000Z,108,2021-11-08T00:03:56.892Z,45.44547,100,-60.95401999999999,100,9.7,100,11.5,100,12.6,100,0.0,100,3.6,100,0.4,100,0.9,100,3.5,100,0.6,100,0.7,100,3.5,100,3.2,100,3.3,100,1020.4,100,31.0,100,235,100,37.4,100,5,100,0.2,1,0,1,1020.4,1,1020.4,100,1020.4,100,31.0,100,29.2,100,235,100,238,100,37.4,100,36.0,100
2021-11-08T00:10:00Z,44488,9302000,EAST CHEDABUCTO BAY,0,45.445,-60.9538,18,2021-11-08T00:10:00.000Z,110,2021-11-08T00:14:00.698Z,,-1,,-1,10.7,100,12.3,100,12.7,100,0.0,100,3.6,100,,-1,,-1,,-1,,-1,,-1,,-1,,-1,,-1,1020.3,100,24.8,100,243,100,29.2,100,5,100,0.0,1,0,1,1020.3,1,1020.3,100,1020.3,100,24.8,100,23.4,100,243,100,246,100,29.2,100,28.1,100
2021-11-08T00:20:00Z,44488,9302000,EAST CHEDABUCTO BAY,0,45.445,-60.9538,18,2021-11-08T00:20:00.000Z,110,2021-11-08T00:24:09.154Z,45.44543,100,-60.95405,100,9.7,100,11.5,100,12.7,100,0.0,100,3.6,100,,-1,,-1,,-1,,-1,,-1,,-1,,-1,,-1,1020.3,100,26.6,100,243,100,32.8,100,5,100,0.2,1,0,1,1020.3,1,1020.3,100,1020.3,100,26.6,100,25.2,100,243,100,246,100,32.8,100,31.0,100
2021-11-08T00:30:00Z,44488,9302000,EAST CHEDABUCTO BAY,0,45.445,-60.9538,18,2021-11-08T00:30:00.000Z,110,2021-11-08T00:34:03.510Z,45.44543,100,-60.95405,100,9.7,100,11.5,100,12.6,100,0.0,100,3.6,100,,-1,,-1,,-1,,-1,,-1,,-1,,-1,,-1,1020.3,100,26.6,100,244,100,31.7,100,5,100,0.2,1,0,1,1020.3,1,1020.3,100,1020.3,100,26.6,100,25.6,100,244,100,247,100,31.7,100,30.6,100
2021-11-08T00:40:00Z,44488,9302000,EAST CHEDABUCTO BAY,0,45.445,-60.9538,18,2021-11-08T00:40:00.000Z,110,2021-11-08T00:44:01.173Z,45.44545,100,-60.95401999999999,100,9.8,100,11.5,100,12.6,100,0.0,100,3.6,100,,-1,,-1,,-1,,-1,,-1,,-1,,-1,,-1,1020.4,100,27.0,100,241,100,32.0,100,5,100,0.2,1,1,1,1020.4,1,1020.4,100,1020.4,100,27.0,100,25.6,100,241,100,245,100,32.0,100,31.3,100
2021-11-08T00:50:00Z,44488,9302000,EAST CHEDABUCTO BAY,0,45.445,-60.9538,18,2021-11-08T00:50:00.000Z,110,2021-11-08T00:54:03.224Z,45.44543,100,-60.95401999999999,100,9.7,100,11.5,100,12.6,100,0.0,100,3.6,100,,-1,,-1,,-1,,-1,,-1,,-1,,-1,,-1,1020.4,100,28.1,100,238,100,32.8,100,5,100,0.0,1,0,1,1020.4,1,1020.4,100,1020.4,100,28.1,100,26.6,100,238,100,242,100,32.8,100,32.0,100
2021-11-08T01:00:00Z,44488,9302000,EAST CHEDABUCTO BAY,0,45.445,-60.9538,18,2021-11-08T01:00:00.000Z,108,2021-11-08T01:04:18.465Z,45.44545,100,-60.95401999999999,100,9.6,100,11.5,100,12.6,100,0.0,100,3.6,100,0.4,100,0.9,100,3.5,100,0.6,100,0.7,100,3.6,100,3.1,100,3.2,100,1020.5,100,28.1,100,237,100,32.8,100,5,100,-0.1,1,6,1,1020.5,1,1020.5,100,1020.4,100,28.1,100,27.0,100,237,100,241,100,32.8,100,31.7,100
2021-11-08T01:10:00Z,44488,9302000,EAST CHEDABUCTO BAY,0,45.445,-60.9538,18,2021-11-08T01:10:00.000Z,110,2021-11-08T01:17:20.220Z,45.44543,100,-60.95403,100,9.6,100,11.5,100,12.6,100,0.0,100,3.6,100,,-1,,-1,,-1,,-1,,-1,,-1,,-1,,-1,1020.5,100,26.3,100,229,100,32.8,100,5,100,-0.1,1,5,1,1020.5,1,1020.5,100,1020.5,100,26.3,100,25.2,100,229,100,233,100,32.8,100,31.3,100
2021-11-08T01:20:00Z,44488,9302000,EAST CHEDABUCTO BAY,0,45.445,-60.9538,18,2021-11-08T01:20:00.000Z,110,2021-11-08T01:24:17.422Z,45.44545,100,-60.95403,100,9.4,100,11.5,100,12.6,100,0.0,100,3.6,100,,-1,,-1,,-1,,-1,,-1,,-1,,-1,,-1,1020.7,100,27.4,100,228,100,32.4,100,5,100,0.1,1,3,1,1020.7,1,1020.7,100,1020.7,100,27.4,100,25.9,100,228,100,231,100,32.4,100,31.7,100
2021-11-08T01:30:00Z,44488,9302000,EAST CHEDABUCTO BAY,0,45.445,-60.9538,18,2021-11-08T01:30:00.000Z,110,2021-11-08T01:34:19.112Z,45.44545,100,-60.95401999999999,100,9.5,100,11.5,100,12.6,100,0.0,100,3.6,100,,-1,,-1,,-1,,-1,,-1,,-1,,-1,,-1,1020.6,100,26.6,100,233,100,31.3,100,5,100,0.0,1,5,1,1020.6,1,1020.6,100,1020.6,100,26.6,100,25.6,100,233,100,236,100,31.3,100,29.9,100
2021-11-08T01:40:00Z,44488,9302000,EAST CHEDABUCTO BAY,0,45.445,-60.9538,18,2021-11-08T01:40:00.000Z,110,2021-11-08T01:43:23.192Z,45.44545,100,-60.95399999999999,100,9.5,100,11.5,100,12.6,100,0.0,100,3.6,100,,-1,,-1,,-1,,-1,,-1,,-1,,-1,,-1,1020.6,100,27.0,100,234,100,33.1,100,5,100,0.1,1,3,1,1020.6,1,1020.6,100,1020.6,100,27.0,100,25.9,100,234,100,237,100,33.1,100,31.3,100
2021-11-08T01:50:00Z,44488,9302000,EAST CHEDABUCTO BAY,0,45.445,-60.9538,18,2021-11-08T01:50:00.000Z,110,2021-11-08T01:53:20.133Z,45.44545,100,-60.95401999999999,100,9.5,100,11.5,100,12.6,100,0.0,100,3.6,100,,-1,,-1,,-1,,-1,,-1,,-1,,-1,,-1,1020.6,100,25.6,100,236,100,29.5,100,5,100,0.0,1,5,1,1020.6,1,1020.6,100,1020.6,100,25.6,100,24.1,100,236,100,239,100,29.5,100,28.4,100
2021-11-08T02:00:00Z,44488,9302000,EAST CHEDABUCTO BAY,0,45.445,-60.9538,18,2021-11-08T02:00:00.000Z,108,2021-11-08T02:03:18.775Z,45.44545,100,-60.95401999999999,100,9.6,100,11.5,100,12.6,100,0.0,100,3.6,100,0.3,100,0.8,100,3.2,100,0.5,100,0.7,100,3.4,100,3.0,100,9.5,100,1020.6,100,27.4,100,242,100,33.5,100,5,100,0.0,1,5,1,1020.6,1,1020.6,100,1020.6,100,27.4,100,25.9,100,242,100,245,100,33.5,100,32.0,100
2021-11-08T02:10:00Z,44488,9302000,EAST CHEDABUCTO BAY,0,45.445,-60.9538,18,2021-11-08T02:10:00.000Z,110,2021-11-08T02:16:29.905Z,45.44547,100,-60.95398,100,9.6,100,11.5,100,12.6,100,0.0,100,3.6,100,,-1,,-1,,-1,,-1,,-1,,-1,,-1,,-1,1020.5,100,30.2,100,241,100,35.3,100,5,100,-0.1,1,6,1,1020.5,1,1020.5,100,1020.5,100,30.2,100,28.8,100,241,100,244,100,35.3,100,34.6,100
2021-11-08T02:20:00Z,44488,9302000,EAST CHEDABUCTO BAY,0,45.445,-60.9538,18,2021-11-08T02:20:00.000Z,110,2021-11-08T02:24:34.177Z,45.44543,100,-60.95401999999999,100,9.7,100,11.4,100,12.6,100,0.0,100,3.6,100,,-1,,-1,,-1,,-1,,-1,,-1,,-1,,-1,1020.5,100,26.6,100,237,100,31.7,100,5,100,0.0,1,0,1,1020.5,1,1020.5,100,1020.4,100,26.6,100,25.2,100,237,100,241,100,31.7,100,30.6,100
2021-11-08T02:30:00Z,44488,9302000,EAST CHEDABUCTO BAY,0,45.445,-60.9538,18,2021-11-08T02:30:00.000Z,110,2021-11-08T02:33:43.429Z,45.44545,100,-60.95403,100,9.6,100,11.4,100,12.6,100,0.0,100,3.6,100,,-1,,-1,,-1,,-1,,-1,,-1,,-1,,-1,1020.4,100,26.6,100,236,100,31.3,100,5,100,0.0,1,0,1,1020.4,1,1020.4,100,1020.4,100,26.6,100,24.8,100,236,100,239,100,31.3,100,29.9,100
2021-11-08T02:40:00Z,44488,9302000,EAST CHEDABUCTO BAY,0,45.445,-60.9538,18,2021-11-08T02:40:00.000Z,110,2021-11-08T02:43:45.591Z,45.44547,100,-60.95403,100,9.6,100,11.4,100,12.6,100,0.0,100,3.6,100,,-1,,-1,,-1,,-1,,-1,,-1,,-1,,-1,1020.2,100,27.0,100,239,100,32.4,100,5,100,0.0,1,0,1,1020.2,1,1020.2,100,1020.2,100,27.0,100,25.6,100,239,100,242,100,32.4,100,31.0,100
2021-11-08T02:50:00Z,44488,9302000,EAST CHEDABUCTO BAY,0,45.445,-60.9538,18,2021-11-08T02:50:00.000Z,110,2021-11-08T02:53:44.046Z,45.44547,100,-60.95405,100,9.5,100,11.4,100,12.6,100,0.0,100,3.6,100,,-1,,-1,,-1,,-1,,-1,,-1,,-1,,-1,1020.2,100,25.6,100,235,100,29.9,100,5,100,-0.3,1,8,1,1020.2,1,1020.2,100,1020.2,100,25.6,100,24.1,100,235,100,239,100,29.9,100,28.4,100
2021-11-08T03:00:00Z,44488,9302000,EAST CHEDABUCTO BAY,0,45.445,-60.9538,18,2021-11-08T03:00:00.000Z,108,2021-11-08T03:03:45.137Z,45.445479999999996,100,-60.95405,100,9.5,100,11.4,100,12.6,100,0.0,100,3.6,100,0.3,100,0.8,100,3.4,100,0.5,100,0.6,100,3.3,100,3.1,100,3.1,100,1020.1,100,26.3,100,231,100,31.3,100,5,100,-0.3,1,8,1,1020.1,1,1020.1,100,1020.1,100,26.3,100,24.8,100,231,100,234,100,31.3,100,30.6,100
2021-11-08T03:10:00Z,44488,9302000,EAST CHEDABUCTO BAY,0,45.445,-60.9538,18,2021-11-08T03:10:00.000Z,110,2021-11-08T03:16:49.240Z,45.44548,100,-60.95405,100,9.5,100,11.4,100,12.6,100,0.0,100,3.6,100,,-1,,-1,,-1,,-1,,-1,,-1,,-1,,-1,1020.1,100,27.0,100,236,100,31.0,100,5,100,-0.2,1,8,1,1020.1,1,1020.1,100,1020.1,100,27.0,100,25.6,100,236,100,239,100,31.0,100,30.2,100
2021-11-08T03:20:00Z,44488,9302000,EAST CHEDABUCTO BAY,0,45.445,-60.9538,18,2021-11-08T03:20:00.000Z,110,2021-11-08T03:23:48.784Z,45.44547,100,-60.95405,100,9.5,100,11.4,100,12.6,100,0.0,100,3.6,100,,-1,,-1,,-1,,-1,,-1,,-1,,-1,,-1,1020.3,100,27.0,100,232,100,32.4,100,5,100,-0.1,1,8,1,1020.3,1,1020.3,100,1020.3,100,27.0,100,25.6,100,232,100,236,100,32.4,100,31.7,100
2021-11-08T03:30:00Z,44488,9302000,EAST CHEDABUCTO BAY,0,45.445,-60.9538,18,2021-11-08T03:30:00.000Z,110,2021-11-08T03:33:56.211Z,45.44543,100,-60.95399999999999,100,9.6,100,11.4,100,12.6,100,0.0,100,3.6,100,,-1,,-1,,-1,,-1,,-1,,-1,,-1,,-1,1020.4,100,26.3,100,236,100,30.6,100,5,100,0.1,1,1,1,1020.4,1,1020.4,100,1020.4,100,26.3,100,24.8,100,236,100,239,100,30.6,100,28.8,100
2021-11-08T03:40:00Z,44488,9302000,EAST CHEDABUCTO BAY,0,45.445,-60.9538,18,2021-11-08T03:40:00.000Z,110,2021-11-08T03:43:54.403Z,45.44547,100,-60.95405,100,9.6,100,11.4,100,12.6,100,0.0,100,3.6,100,,-1,,-1,,-1,,-1,,-1,,-1,,-1,,-1,1020.5,100,25.6,100,238,100,30.2,100,5,100,0.1,1,3,1,1020.5,1,1020.5,100,1020.5,100,25.6,100,24.1,100,238,100,241,100,30.2,100,29.9,100
2021-11-08T03:50:00Z,44488,9302000,EAST CHEDABUCTO BAY,0,45.445,-60.9538,18,2021-11-08T03:50:00.000Z,110,2021-11-08T03:54:07.517Z,45.44543,100,-60.95398,100,9.6,100,11.4,100,12.6,100,0.0,100,3.6,100,,-1,,-1,,-1,,-1,,-1,,-1,,-1,,-1,1020.6,100,25.6,100,243,100,30.6,100,5,100,0.2,1,3,1,1020.6,1,1020.6,100,1020.6,100,25.6,100,24.1,100,243,100,246,100,30.6,100,29.9,100
2021-11-08T04:00:00Z,44488,9302000,EAST CHEDABUCTO BAY,0,45.445,-60.9538,18,2021-11-08T04:00:00.000Z,108,2021-11-08T04:04:02.959Z,45.44543,100,-60.95399999999999,100,9.5,100,11.4,100,12.6,100,0.0,100,3.6,100,0.3,100,0.8,100,3.0,100,0.5,100,0.6,100,2.9,100,2.9,100,2.9,100,1020.7,100,26.3,100,242,100,30.2,100,5,100,0.2,1,3,1,1020.7,1,1020.7,100,1020.7,100,26.3,100,25.2,100,242,100,245,100,30.2,100,29.5,100
2021-11-08T04:10:00Z,44488,9302000,EAST CHEDABUCTO BAY,0,45.445,-60.9538,18,2021-11-08T04:10:00.000Z,110,2021-11-08T04:17:05.200Z,45.44543,100,-60.95399999999999,100,9.5,100,11.4,100,12.6,100,0.0,100,3.6,100,,-1,,-1,,-1,,-1,,-1,,-1,,-1,,-1,1020.9,100,23.8,100,248,100,28.4,100,5,100,0.3,1,3,1,1020.9,1,1020.9,100,1020.9,100,23.8,100,22.7,100,248,100,251,100,28.4,100,28.1,100
2021-11-08T04:20:00Z,44488,9302000,EAST CHEDABUCTO BAY,0,45.445,-60.9538,18,2021-11-08T04:20:00.000Z,110,2021-11-08T04:24:05.727Z,45.44542,100,-60.95398,100,9.5,100,11.4,100,12.6,100,0.0,100,3.6,100,,-1,,-1,,-1,,-1,,-1,,-1,,-1,,-1,1020.8,100,22.3,100,251,100,25.6,100,5,100,0.1,1,3,1,1020.8,1,1020.8,100,1020.8,100,22.3,100,21.2,100,251,100,254,100,25.6,100,24.8,100
2021-11-08T04:30:00Z,44488,9302000,EAST CHEDABUCTO BAY,0,45.445,-60.9538,18,2021-11-08T04:30:00.000Z,110,2021-11-08T04:36:06.746Z,45.44542,100,-60.95398,100,9.5,100,11.4,100,12.6,100,0.0,100,3.6,100,,-1,,-1,,-1,,-1,,-1,,-1,,-1,,-1,1020.6,100,22.3,100,249,100,25.2,100,5,100,0.0,1,5,1,1020.6,1,1020.6,100,1020.6,100,22.3,100,20.9,100,249,100,252,100,25.2,100,23.8,100
2021-11-08T04:40:00Z,44488,9302000,EAST CHEDABUCTO BAY,0,45.445,-60.9538,18,2021-11-08T04:40:00.000Z,110,2021-11-08T04:43:07.415Z,45.44543,100,-60.95399999999999,100,9.5,100,11.4,100,12.6,100,0.0,100,3.6,100,,-1,,-1,,-1,,-1,,-1,,-1,,-1,,-1,1020.5,100,22.7,100,252,100,25.9,100,5,100,-0.2,1,6,1,1020.5,1,1020.5,100,1020.4,100,22.7,100,21.6,100,252,100,255,100,25.9,100,24.5,100
2021-11-08T04:50:00Z,44488,9302000,EAST CHEDABUCTO BAY,0,45.445,-60.9538,18,2021-11-08T04:50:00.000Z,110,2021-11-08T04:54:11.757Z,45.44542,100,-60.95399999999999,100,9.5,100,11.4,100,12.5,100,0.0,100,3.6,100,,-1,,-1,,-1,,-1,,-1,,-1,,-1,,-1,1020.4,100,21.2,100,254,100,24.5,100,5,100,-0.2,1,6,1,1020.4,1,1020.4,100,1020.4,100,21.2,100,20.2,100,254,100,257,100,24.5,100,23.8,100
2021-11-08T05:00:00Z,44488,9302000,EAST CHEDABUCTO BAY,0,45.445,-60.9538,18,2021-11-08T05:00:00.000Z,108,2021-11-08T05:03:10.015Z,45.4454,100,-60.95398,100,9.5,100,11.4,100,12.6,100,0.0,100,3.6,100,0.3,100,0.7,100,3.6,100,0.4,100,0.5,100,3.6,100,3.1,100,9.5,100,1020.3,100,18.0,100,258,100,22.3,100,5,100,-0.3,1,6,1,1020.3,1,1020.3,100,1020.3,100,18.0,100,16.9,100,258,100,261,100,22.3,100,21.6,100
2021-11-08T05:10:00Z,44488,9302000,EAST CHEDABUCTO BAY,0,45.445,-60.9538,18,2021-11-08T05:10:00.000Z,110,2021-11-08T05:16:25.451Z,45.4454,100,-60.95398,100,9.4,100,11.4,100,12.6,100,0.0,100,3.6,100,,-1,,-1,,-1,,-1,,-1,,-1,,-1,,-1,1020.2,100,18.0,100,264,100,20.5,100,5,100,-0.3,1,8,1,1020.2,1,1020.2,100,1020.2,100,18.0,100,17.3,100,264,100,267,100,20.5,100,20.5,100
2021-11-08T05:20:00Z,44488,9302000,EAST CHEDABUCTO BAY,0,45.445,-60.9538,18,2021-11-08T05:20:00.000Z,110,2021-11-08T05:23:26.096Z,45.4454,100,-60.95399999999999,100,9.4,100,11.4,100,12.6,100,0.0,100,3.6,100,,-1,,-1,,-1,,-1,,-1,,-1,,-1,,-1,1020.1,100,18.0,100,259,100,21.6,100,5,100,-0.3,1,8,1,1020.1,1,1020.1,100,1020.1,100,18.0,100,17.3,100,259,100,262,100,21.6,100,20.9,100
2021-11-08T05:30:00Z,44488,9302000,EAST CHEDABUCTO BAY,0,45.445,-60.9538,18,2021-11-08T05:30:00.000Z,110,2021-11-08T05:33:24.843Z,45.4454,100,-60.95399999999999,100,9.4,100,11.4,100,12.6,100,0.0,100,3.6,100,,-1,,-1,,-1,,-1,,-1,,-1,,-1,,-1,1020.0,100,17.6,100,259,100,20.9,100,5,100,-0.4,1,8,1,1020.0,1,1020.0,100,1020.0,100,17.6,100,16.6,100,259,100,263,100,20.9,100,20.2,100
2021-11-08T05:40:00Z,44488,9302000,EAST CHEDABUCTO BAY,0,45.445,-60.9538,18,2021-11-08T05:40:00.000Z,110,2021-11-08T05:43:26.942Z,45.4454,100,-60.95399999999999,100,9.3,100,11.4,100,12.5,100,0.0,100,3.6,100,,-1,,-1,,-1,,-1,,-1,,-1,,-1,,-1,1020.1,100,17.3,100,267,100,20.9,100,5,100,-0.2,1,8,1,1020.1,1,1020.1,100,1020.1,100,17.3,100,16.6,100,267,100,270,100,20.9,100,20.2,100
2021-11-08T05:50:00Z,44488,9302000,EAST CHEDABUCTO BAY,0,45.445,-60.9538,18,2021-11-08T05:50:00.000Z,110,2021-11-08T05:53:26.128Z,45.44538,100,-60.95397,100,9.3,100,11.4,100,12.5,100,0.0,100,3.6,100,,-1,,-1,,-1,,-1,,-1,,-1,,-1,,-1,1020.0,100,16.9,100,273,100,19.8,100,5,100,-0.2,1,8,1,1020.0,1,1020.0,100,1020.0,100,16.9,100,16.2,100,273,100,276,100,19.8,100,19.1,100
2021-11-08T06:00:00Z,44488,9302000,EAST CHEDABUCTO BAY,0,45.445,-60.9538,18,2021-11-08T06:00:00.000Z,108,2021-11-08T06:03:31.315Z,45.44542,100,-60.95401999999999,100,9.2,100,11.4,100,12.5,100,0.0,100,3.6,100,0.2,100,0.7,100,4.3,100,0.4,100,0.4,100,4.8,100,3.2,100,9.1,100,1020.0,100,16.2,100,281,100,18.7,100,5,100,-0.1,1,8,1,1020.0,1,1020.0,100,1020.0,100,16.2,100,15.5,100,281,100,284,100,18.7,100,18.7,100
2021-11-08T06:10:00Z,44488,9302000,EAST CHEDABUCTO BAY,0,45.445,-60.9538,18,2021-11-08T06:10:00.000Z,110,2021-11-08T06:16:31.062Z,45.4454,100,-60.95399999999999,100,9.1,100,11.5,100,12.6,100,0.0,100,3.6,100,,-1,,-1,,-1,,-1,,-1,,-1,,-1,,-1,1020.1,100,14.0,100,278,100,17.3,100,5,100,-0.1,1,8,1,1020.1,1,1020.1,100,1020.1,100,14.0,100,13.3,100,278,100,281,100,17.3,100,16.6,100
2021-11-08T06:20:00Z,44488,9302000,EAST CHEDABUCTO BAY,0,45.445,-60.9538,18,2021-11-08T06:20:00.000Z,110,2021-11-08T06:23:32.320Z,45.44542,100,-60.95403,100,8.9,100,11.4,100,12.6,100,0.0,100,3.6,100,,-1,,-1,,-1,,-1,,-1,,-1,,-1,,-1,1020.1,100,13.7,100,268,100,18.4,100,5,100,-0.2,1,8,1,1020.1,1,1020.1,100,1020.1,100,13.7,100,13.0,100,268,100,271,100,18.4,100,17.6,100
2021-11-08T06:30:00Z,44488,9302000,EAST CHEDABUCTO BAY,0,45.445,-60.9538,18,2021-11-08T06:30:00.000Z,110,2021-11-08T06:34:42.712Z,45.4454,100,-60.95399999999999,100,8.9,100,11.4,100,12.6,100,0.0,100,3.6,100,,-1,,-1,,-1,,-1,,-1,,-1,,-1,,-1,1020.0,100,11.2,100,279,100,13.7,100,5,100,-0.4,1,8,1,1020.0,1,1020.0,100,1020.0,100,11.2,100,10.4,100,279,100,282,100,13.7,100,13.7,100
2021-11-08T06:40:00Z,44488,9302000,EAST CHEDABUCTO BAY,0,45.445,-60.9538,18,2021-11-08T06:40:00.000Z,110,2021-11-08T06:43:44.772Z,45.44542,100,-60.95401999999999,100,8.8,100,11.4,100,12.5,100,0.0,100,3.6,100,,-1,,-1,,-1,,-1,,-1,,-1,,-1,,-1,1020.0,100,13.0,100,268,100,15.8,100,5,100,-0.6,1,8,1,1020.0,1,1020.0,100,1019.9,100,13.0,100,12.2,100,268,100,271,100,15.8,100,15.5,100
2021-11-08T06:50:00Z,44488,9302000,EAST CHEDABUCTO BAY,0,45.445,-60.9538,18,2021-11-08T06:50:00.000Z,110,2021-11-08T06:53:44.440Z,45.44542,100,-60.95403,100,8.7,100,11.4,100,12.5,100,0.0,100,3.6,100,,-1,,-1,,-1,,-1,,-1,,-1,,-1,,-1,1019.9,100,13.3,100,271,100,16.6,100,5,100,-0.7,1,6,1,1019.9,1,1019.9,100,1019.9,100,13.3,100,12.6,100,271,100,275,100,16.6,100,15.5,100
2021-11-08T07:00:00Z,44488,9302000,EAST CHEDABUCTO BAY,0,45.445,-60.9538,18,2021-11-08T07:00:00.000Z,108,2021-11-08T07:03:45.973Z,45.4454,100,-60.95403,100,8.7,100,11.4,100,12.5,100,0.0,100,3.6,100,0.2,100,0.5,100,5.4,100,0.3,100,0.4,100,6.5,100,3.7,100,9.1,100,1019.9,100,14.0,100,263,100,16.6,100,5,100,-0.8,1,6,1,1019.9,1,1019.9,100,1019.9,100,14.0,100,13.3,100,263,100,266,100,16.6,100,15.8,100
2021-11-08T07:10:00Z,44488,9302000,EAST CHEDABUCTO BAY,0,45.445,-60.9538,18,2021-11-08T07:10:00.000Z,110,2021-11-08T07:16:52.973Z,45.44542,100,-60.95403,100,8.7,100,11.4,100,12.5,100,0.0,100,3.6,100,,-1,,-1,,-1,,-1,,-1,,-1,,-1,,-1,1019.9,100,13.7,100,264,100,16.2,100,5,100,-0.9,1,6,1,1019.9,1,1019.9,100,1019.9,100,13.7,100,13.0,100,264,100,267,100,16.2,100,15.8,100
2021-11-08T07:20:00Z,44488,9302000,EAST CHEDABUCTO BAY,0,45.445,-60.9538,18,2021-11-08T07:20:00.000Z,110,2021-11-08T07:23:46.643Z,45.44542,100,-60.95403,100,8.7,100,11.4,100,12.5,100,0.0,100,3.6,100,,-1,,-1,,-1,,-1,,-1,,-1,,-1,,-1,1019.8,100,14.4,100,264,100,16.9,100,5,100,-1.0,1,6,1,1019.8,1,1019.8,100,1019.8,100,14.4,100,13.3,100,264,100,267,100,16.9,100,16.9,100
2021-11-08T07:30:00Z,44488,9302000,EAST CHEDABUCTO BAY,0,45.445,-60.9538,18,2021-11-08T07:30:00.000Z,110,2021-11-08T07:33:49.666Z,45.44542,100,-60.95405,100,8.7,100,11.4,100,12.5,100,0.0,100,3.6,100,,-1,,-1,,-1,,-1,,-1,,-1,,-1,,-1,1019.8,100,13.7,100,261,100,18.0,100,5,100,-0.8,1,6,1,1019.8,1,1019.8,100,1019.8,100,13.7,100,13.0,100,261,100,264,100,18.0,100,16.9,100
2021-11-08T07:40:00Z,44488,9302000,EAST CHEDABUCTO BAY,0,45.445,-60.9538,18,2021-11-08T07:40:00.000Z,110,2021-11-08T07:43:50.417Z,45.44543,100,-60.954069999999994,100,8.7,100,11.4,100,12.5,100,0.0,100,3.6,100,,-1,,-1,,-1,,-1,,-1,,-1,,-1,,-1,1019.7,100,12.2,100,265,100,14.8,100,5,100,-0.7,1,6,1,1019.7,1,1019.7,100,1019.7,100,12.2,100,11.5,100,265,100,269,100,14.8,100,14.4,100
2021-11-08T07:50:00Z,44488,9302000,EAST CHEDABUCTO BAY,0,45.445,-60.9538,18,2021-11-08T07:50:00.000Z,110,2021-11-08T07:55:50.172Z,45.44545,100,-60.95412,100,8.7,100,11.3,100,12.5,100,0.0,100,3.6,100,,-1,,-1,,-1,,-1,,-1,,-1,,-1,,-1,1019.8,100,12.2,100,256,100,15.8,100,5,100,-0.6,1,6,1,1019.8,1,1019.8,100,1019.8,100,12.2,100,11.5,100,256,100,259,100,15.8,100,14.8,100
2021-11-08T08:00:00Z,44488,9302000,EAST CHEDABUCTO BAY,0,45.445,-60.9538,18,2021-11-08T08:00:00.000Z,108,2021-11-08T08:04:05.375Z,45.44543,100,-60.95405,100,8.7,100,11.3,100,12.5,100,0.0,100,3.6,100,0.2,100,0.6,100,6.3,100,0.3,100,0.4,100,7.5,100,4.1,100,9.1,100,1019.9,100,11.9,100,257,100,15.1,100,5,100,-0.5,1,6,1,1019.9,1,1019.9,100,1019.8,100,11.9,100,10.8,100,257,100,260,100,15.1,100,14.8,100
2021-11-08T08:10:00Z,44488,9302000,EAST CHEDABUCTO BAY,0,45.445,-60.9538,18,2021-11-08T08:10:00.000Z,110,2021-11-08T08:18:15.228Z,45.44543,100,-60.95407,100,8.8,100,11.3,100,12.5,100,0.0,100,3.6,100,,-1,,-1,,-1,,-1,,-1,,-1,,-1,,-1,1019.8,100,11.9,100,251,100,14.8,100,5,100,-0.4,1,7,1,1019.8,1,1019.8,100,1019.8,100,11.9,100,11.2,100,251,100,254,100,14.8,100,14.0,100
2021-11-08T08:20:00Z,44488,9302000,EAST CHEDABUCTO BAY,0,45.445,-60.9538,18,2021-11-08T08:20:00.000Z,110,2021-11-08T08:25:17.192Z,45.44543,100,-60.9541,100,8.8,100,11.3,100,12.5,100,0.0,100,3.6,100,,-1,,-1,,-1,,-1,,-1,,-1,,-1,,-1,1019.7,100,11.5,100,245,100,13.7,100,5,100,-0.4,1,8,1,1019.7,1,1019.7,100,1019.7,100,11.5,100,10.8,100,245,100,249,100,13.7,100,13.3,100
2021-11-08T08:30:00Z,44488,9302000,EAST CHEDABUCTO BAY,0,45.445,-60.9538,18,2021-11-08T08:30:00.000Z,110,2021-11-08T08:34:18.143Z,45.44543,100,-60.95408000000001,100,8.9,100,11.3,100,12.5,100,0.0,100,3.6,100,,-1,,-1,,-1,,-1,,-1,,-1,,-1,,-1,1019.7,100,12.6,100,246,100,15.1,100,5,100,-0.3,1,8,1,1019.7,1,1019.7,100,1019.7,100,12.6,100,11.9,100,246,100,249,100,15.1,100,14.4,100
2021-11-08T08:40:00Z,44488,9302000,EAST CHEDABUCTO BAY,0,45.445,-60.9538,18,2021-11-08T08:40:00.000Z,110,2021-11-08T08:45:18.616Z,45.44543,100,-60.95405,100,9.0,100,11.3,100,12.5,100,0.0,100,3.6,100,,-1,,-1,,-1,,-1,,-1,,-1,,-1,,-1,1019.7,100,11.5,100,250,100,14.4,100,5,100,-0.4,1,7,1,1019.7,1,1019.7,100,1019.6,100,11.5,100,11.2,100,250,100,253,100,14.4,100,14.0,100
2021-11-08T08:50:00Z,44488,9302000,EAST CHEDABUCTO BAY,0,45.445,-60.9538,18,2021-11-08T08:50:00.000Z,110,2021-11-08T08:54:18.567Z,45.44545,100,-60.95405,100,9.1,100,11.3,100,12.5,100,0.0,100,3.6,100,,-1,,-1,,-1,,-1,,-1,,-1,,-1,,-1,1019.5,100,11.2,100,256,100,16.9,100,5,100,-0.4,1,8,1,1019.5,1,1019.5,100,1019.5,100,11.2,100,10.4,100,256,100,259,100,16.9,100,16.9,100
2021-11-08T09:00:00Z,44488,9302000,EAST CHEDABUCTO BAY,0,45.445,-60.9538,18,2021-11-08T09:00:00.000Z,108,2021-11-08T09:04:18.616Z,45.44543,100,-60.95405,100,9.2,100,11.3,100,12.5,100,0.0,100,3.6,100,0.2,100,0.5,100,7.2,100,0.3,100,0.4,100,7.9,100,4.5,100,9.1,100,1019.4,100,13.3,100,254,100,16.6,100,5,100,-0.6,1,8,1,1019.4,1,1019.4,100,1019.4,100,13.3,100,12.6,100,254,100,257,100,16.6,100,16.2,100
2021-11-08T09:10:00Z,44488,9302000,EAST CHEDABUCTO BAY,0,45.445,-60.9538,18,2021-11-08T09:10:00.000Z,110,2021-11-08T09:16:29.088Z,45.44545,100,-60.95407,100,9.3,100,11.3,100,12.5,100,0.0,100,3.6,100,,-1,,-1,,-1,,-1,,-1,,-1,,-1,,-1,1019.4,100,12.2,100,250,100,15.8,100,5,100,-0.7,1,8,1,1019.4,1,1019.4,100,1019.4,100,12.2,100,11.9,100,250,100,253,100,15.8,100,15.1,100
2021-11-08T09:20:00Z,44488,9302000,EAST CHEDABUCTO BAY,0,45.445,-60.9538,18,2021-11-08T09:20:00.000Z,110,2021-11-08T09:24:38.709Z,45.44545,100,-60.95405,100,9.3,100,11.3,100,12.5,100,0.0,100,3.6,100,,-1,,-1,,-1,,-1,,-1,,-1,,-1,,-1,1019.3,100,13.7,100,259,100,17.3,100,5,100,-0.8,1,8,1,1019.3,1,1019.3,100,1019.3,100,13.7,100,13.3,100,259,100,262,100,17.3,100,16.2,100
2021-11-08T09:30:00Z,44488,9302000,EAST CHEDABUCTO BAY,0,45.445,-60.9538,18,2021-11-08T09:30:00.000Z,110,2021-11-08T09:33:33.001Z,45.44543,100,-60.95407,100,9.2,100,11.4,100,12.5,100,0.0,100,3.6,100,,-1,,-1,,-1,,-1,,-1,,-1,,-1,,-1,1019.5,100,12.2,100,247,100,14.4,100,5,100,-0.6,1,8,1,1019.5,1,1019.5,100,1019.5,100,12.2,100,11.5,100,247,100,250,100,14.4,100,13.7,100